Location: Cedar Brake
(32.2526°N, 97.8459°W)
Time: 08:11:18
(UTC+00:00)

Cosmos 1378 Rocket - Pass Details

Date: 22 April 2026
Orbit: 594 x 619 km, 82.5° (Epoch: 14 May)

Event Time Altitude Azimuth Distance (km) Brightness Sun altitude
Rises 03:04:45 0° 347° (NNW) 2,877 7.7 -23.8°
Reaches altitude 10° 03:07:02 10° 342° (NNW) 1,965 6.8 -24.2°
Maximum altitude 03:11:14 50° 267° (W) 770 4.2 -25.0°
Enters shadow 03:12:09 42° 227° (SW) 865 4.3 -25.1°
